User: anonymous   Login
Location: Cheching
(60.0667°N, 164.2167°W)
Time: 10:36:25
(UTC+00:00)
Language:

STRAND 1 - Orbit

View from above orbital plane
View from above orbital plane
View from above satellite
View from above satellite

Ground track
Ground track

The orbit data is extracted from the following two-line orbital elements,

1 39090U 13009E   21137.80027210 -.00000036  00000-0  23312-5 0  9994
2 39090  98.4303 340.7245 0009519  17.5764 342.5749 14.35174825430640
Epoch (UTC): 17 May 2021 19:12:23
Eccentricity: 0.0009519
inclination: 98.4303°
perigee height: 767 km
apogee height: 781 km
right ascension of ascending node: 340.7245°
argument of perigee: 17.5764°
revolutions per day: 14.35174825
mean anomaly at epoch: 342.5749°
orbit number at epoch: 43064

The dashed part of the orbit path shows where the satellite is in the earth's shadow,  

DLR